Ogden, UT

3:40 AM MDT on June 28, 2017 (GMT -0600)
Ogden-Hinckley

Weather History for KOGD - September, 2013

Change the Weather History Date:

Monday, September 16, 2013

  Actual Average Record
Temperature  
Mean Temperature 74 °F -  
Max Temperature 86 °F 79 °F 92 °F (1943)
Min Temperature 61 °F 47 °F 34 °F (1936)
Cooling Degree Days 8    
Growing Degree Days 24 (Base 50)    
Moisture  
Dew Point 49 °F    
Average Humidity 47    
Maximum Humidity 67    
Minimum Humidity 24    
Precipitation  
Precipitation 0.00 in - - ()
Sea Level Pressure  
Sea Level Pressure 29.85 in    
Wind  
Wind Speed 9 mph (South)    
Max Wind Speed 15 mph    
Max Gust Speed 21 mph    
Visibility 10 miles    
Events      
Averages and records for this station are not official NWS values.
T = Trace of Precipitation, MM = Missing Value Source: NWS Daily Summary

Daily Weather History Graph

Daily Weather History Graph

Search for Another Location

Airport or City:

Trip Planner

Search our weather history database for the weather conditions in past years. The results will help you decide how hot, cold, wet, or windy it might be!

Date:

Astronomy

Sep. 16, 2013 Rise Set
Actual Time 7:09 AM MDT 7:34 PM MDT
Civil Twilight 6:42 AM MDT 8:02 PM MDT
Nautical Twilight 6:09 AM MDT 8:35 PM MDT
Astronomical Twilight 5:36 AM MDT 9:08 PM MDT
Moon 5:47 PM MDT (9/16) 3:58 AM MDT (9/16)
Length of Visible Light 13h 20m
Length of Day
12h 25m
Waxing Gibbous, 90% of the Moon is Illuminated
Sep 16
Waxing Gibbous
Sep 19
Full
Sep 26
Last Quarter
Oct 4
New
Oct 11
First Quarter

Hourly Weather History & Observations

Time (MDT) Temp. Dew Point Humidity Pressure Visibility Wind Dir Wind Speed Gust Speed Precip Events Conditions
12:53 AM 64.9 °F 52.0 °F 63% 29.88 in 10.0 mi South 10.4 mph - N/A   Clear
1:53 AM 63.0 °F 52.0 °F 67% 29.89 in 10.0 mi SSE 9.2 mph - N/A   Clear
2:53 AM 62.1 °F 51.1 °F 67% 29.89 in 10.0 mi South 8.1 mph - N/A   Clear
3:53 AM 62.1 °F 51.1 °F 67% 29.88 in 10.0 mi South 10.4 mph - N/A   Clear
4:53 AM 61.0 °F 50.0 °F 67% 29.89 in 10.0 mi South 6.9 mph - N/A   Clear
5:53 AM 61.0 °F 50.0 °F 67% 29.89 in 10.0 mi South 8.1 mph - N/A   Partly Cloudy
6:53 AM 61.0 °F 48.9 °F 64% 29.91 in 10.0 mi South 10.4 mph - N/A   Partly Cloudy
7:53 AM 62.1 °F 48.9 °F 62% 29.92 in 10.0 mi SSE 6.9 mph - N/A   Mostly Cloudy
8:53 AM 62.1 °F 50.0 °F 65% 29.93 in 10.0 mi SSE 9.2 mph - N/A   Clear
9:53 AM 71.1 °F 50.0 °F 47% 29.92 in 10.0 mi SSE 9.2 mph - N/A   Partly Cloudy
10:53 AM 72.0 °F 51.1 °F 48% 29.93 in 10.0 mi SE 6.9 mph - N/A   Clear
11:53 AM 79.0 °F 50.0 °F 36% 29.91 in 10.0 mi South 15.0 mph - N/A   Clear
12:53 PM 81.0 °F 50.0 °F 34% 29.89 in 10.0 mi South 12.7 mph 20.7 mph 0.00 in   Clear
1:53 PM 84.0 °F 50.0 °F 31% 29.86 in 10.0 mi South 12.7 mph - N/A   Clear
2:53 PM 86.0 °F 48.0 °F 27% 29.84 in 10.0 mi South 13.8 mph - N/A   Partly Cloudy
3:53 PM 84.9 °F 45.0 °F 25% 29.81 in 10.0 mi SW 8.1 mph - N/A   Clear
4:53 PM 82.9 °F 45.0 °F 26% 29.80 in 10.0 mi WSW 4.6 mph - N/A   Clear
5:53 PM 84.9 °F 44.1 °F 24% 29.78 in 10.0 mi Calm Calm - N/A   Clear
6:53 PM 84.0 °F 45.0 °F 25% 29.77 in 10.0 mi Calm Calm - N/A   Clear
7:53 PM 77.0 °F 48.9 °F 37% 29.77 in 10.0 mi Calm Calm - N/A   Scattered Clouds
8:53 PM 73.9 °F 51.1 °F 45% 29.78 in 10.0 mi South 8.1 mph - N/A   Clear
9:53 PM 72.0 °F 48.9 °F 44% 29.76 in 10.0 mi South 8.1 mph - N/A   Clear
10:53 PM 71.1 °F 48.0 °F 44% 29.76 in 10.0 mi South 12.7 mph - N/A   Clear
11:53 PM 72.0 °F 46.9 °F 41% 29.75 in 10.0 mi SSE 12.7 mph - N/A   Clear